Tracking 30995 objects as of 7-Jul-2025
HD Live streaming from Space Station
objects crossing your sky now

STARLINK-31535

Track STARLINK-31535 now!
10-day predictions


NORAD ID: 59504
Int'l Code: 2024-071W
Perigee: 489.4 km
Apogee: 491.0 km
Inclination: 43.0 °
Period: 94.3 minutes
Semi major axis: 6861 km
RCS: Unknown
Launch date: April 13, 2024
Source: United States (US)
Launch site: AIR FORCE EASTERN TEST RANGE (AFETR)
Your satellite tracking list
Your tracking list is empty




NASA's NSSDC Master Catalog

Two Line Element Set (TLE):
1 59504U 24071W   25187.75696748  .00001213  00000-0  53602-4 0  9999
2 59504  43.0043 296.4034 0001156 262.9661  97.1059 15.27584672 70467
Source of the keplerian elements: AFSPC